When you browse on this site, cookies collect data to enhance your experience and personalize the content and advertising you see.
Visit our Privacy Policy to learn more. By continuing to use the site, you agree to this use of cookies and data.
  • In Portugal
  • List of Countries
  • For 7 days
  • Water Temperature
  • Satellite Maps
  • Weather Map
  • Weather Widgets
  • user-avatar
    Login

    Hourly Weather Pazardzhik

    Today, 21 April, Sunday

    Time Temperature Precipitation Wind Pressure Humidity
    00:00 +6°C° 0 mm 1 mps 751 mmHg 63%
    01:00 +6°C° 0 mm 1 mps 751 mmHg 63%
    02:00 +6°C° 0 mm 1 mps 751 mmHg 62%
    03:00 +6°C° 0 mm 1 mps 751 mmHg 61%
    04:00 +5°C° 0 mm 1 mps 751 mmHg 60%
    05:00 +5°C° 0 mm 1 mps 750 mmHg 60%
    06:00 +7°C° 0 mm 1 mps 750 mmHg 54%
    07:00 +9°C° 0 mm 1 mps 750 mmHg 48%
    08:00 +11°C° 0 mm 1 mps 750 mmHg 42%
    09:00 +13°C° 0 mm 1 mps 749 mmHg 40%
    10:00 +14°C° 0 mm 1 mps 749 mmHg 37%
    11:00 +16°C° 0 mm 1 mps 749 mmHg 34%
    12:00 +17°C° 0 mm 2 mps 748 mmHg 34%
    13:00 +17°C° 0 mm 2 mps 748 mmHg 33%
    14:00 +18°C° 0 mm 2 mps 748 mmHg 32%
    15:00 +18°C° 0 mm 2 mps 747 mmHg 34%
    16:00 +18°C° 0 mm 2 mps 747 mmHg 36%
    17:00 +18°C° 0 mm 1 mps 746 mmHg 37%
    18:00 +15°C° 0 mm 1 mps 746 mmHg 42%
    19:00 +13°C° 0 mm 1 mps 746 mmHg 47%
    20:00 +11°C° 0 mm 1 mps 746 mmHg 52%
    21:00 +11°C° 0 mm 1 mps 747 mmHg 55%
    22:00 +10°C° 0 mm 1 mps 747 mmHg 58%
    23:00 +9°C° 0 mm 1 mps 747 mmHg 61%

    Tomorrow, 22 April, Monday

    Time Temperature Precipitation Wind Pressure Humidity
    00:00 +9°C° 0 mm 1 mps 747 mmHg 63%
    01:00 +9°C° 0 mm 1 mps 747 mmHg 65%
    02:00 +9°C° 0 mm 1 mps 746 mmHg 68%
    03:00 +8°C° 0 mm 1 mps 746 mmHg 69%
    04:00 +8°C° 0 mm 1 mps 746 mmHg 70%
    05:00 +8°C° 0 mm 1 mps 746 mmHg 71%
    06:00 +10°C° 0 mm 1 mps 746 mmHg 65%
    07:00 +12°C° 0 mm 1 mps 746 mmHg 59%
    08:00 +14°C° 0 mm 1 mps 746 mmHg 53%
    09:00 +15°C° 0 mm 1 mps 746 mmHg 49%
    10:00 +17°C° 0 mm 2 mps 746 mmHg 45%
    11:00 +19°C° 0 mm 3 mps 745 mmHg 42%
    12:00 +19°C° 0 mm 3 mps 745 mmHg 42%
    13:00 +20°C° 0 mm 3 mps 745 mmHg 42%
    14:00 +20°C° 0 mm 4 mps 744 mmHg 43%
    15:00 +20°C° 0 mm 3 mps 744 mmHg 46%
    16:00 +19°C° 0 mm 3 mps 744 mmHg 49%
    17:00 +19°C° 0 mm 3 mps 744 mmHg 53%
    18:00 +17°C° 0 mm 3 mps 744 mmHg 62%
    19:00 +15°C° 0 mm 2 mps 744 mmHg 70%
    20:00 +13°C° 0 mm 2 mps 744 mmHg 79%
    21:00 +13°C° 0 mm 2 mps 744 mmHg 81%
    22:00 +12°C° 0 mm 2 mps 745 mmHg 83%
    23:00 +12°C° 0 mm 2 mps 745 mmHg 85%

    Day after tomorrow, 23 April, Tuesday

    Time Temperature Precipitation Wind Pressure Humidity
    00:00 +10°C° 0.1 mm 2 mps 745 mmHg 86%
    01:00 +10°C° 0.1 mm 2 mps 746 mmHg 86%
    02:00 +9°C° 0.1 mm 2 mps 746 mmHg 87%
    03:00 +9°C° 0.6 mm 2 mps 746 mmHg 88%
    04:00 +9°C° 0.6 mm 2 mps 746 mmHg 89%
    05:00 +8°C° 0.6 mm 2 mps 746 mmHg 90%
    06:00 +9°C° 0 mm 2 mps 746 mmHg 87%
    07:00 +9°C° 0 mm 3 mps 746 mmHg 84%
    08:00 +10°C° 0 mm 3 mps 746 mmHg 81%
    09:00 +11°C° 0.2 mm 3 mps 746 mmHg 79%
    10:00 +12°C° 0.2 mm 4 mps 746 mmHg 78%
    11:00 +13°C° 0.2 mm 4 mps 746 mmHg 76%
    12:00 +14°C° 0 mm 4 mps 746 mmHg 71%
    13:00 +15°C° 0 mm 4 mps 746 mmHg 67%
    14:00 +18°C° 0 mm 4 mps 746 mmHg 62%
    15:00 +18°C° 0 mm 4 mps 746 mmHg 63%
    16:00 +17°C° 0 mm 4 mps 745 mmHg 64%
    17:00 +17°C° 0 mm 4 mps 745 mmHg 65%
    18:00 +16°C° 0 mm 3 mps 745 mmHg 72%
    19:00 +13°C° 0 mm 3 mps 745 mmHg 79%
    20:00 +12°C° 0 mm 2 mps 745 mmHg 85%
    21:00 +12°C° 0 mm 2 mps 746 mmHg 85%
    22:00 +12°C° 0 mm 2 mps 746 mmHg 84%
    23:00 +10°C° 0 mm 2 mps 747 mmHg 84%

    24 April, Wednesday

    Time Temperature Precipitation Wind Pressure Humidity
    00:00 +10°C° 0 mm 2 mps 747 mmHg 84%
    01:00 +10°C° 0 mm 1 mps 747 mmHg 85%
    02:00 +10°C° 0 mm 1 mps 747 mmHg 85%
    03:00 +10°C° 0 mm 1 mps 747 mmHg 84%
    04:00 +10°C° 0 mm 1 mps 747 mmHg 84%
    05:00 +10°C° 0 mm 1 mps 748 mmHg 83%
    06:00 +12°C° 0 mm 1 mps 748 mmHg 77%
    07:00 +14°C° 0 mm 1 mps 748 mmHg 70%
    08:00 +16°C° 0 mm 1 mps 748 mmHg 63%
    09:00 +18°C° 0 mm 2 mps 748 mmHg 60%
    10:00 +19°C° 0 mm 2 mps 748 mmHg 56%
    11:00 +21°C° 0 mm 3 mps 748 mmHg 53%
    12:00 +22°C° 0 mm 3 mps 748 mmHg 53%
    13:00 +22°C° 0 mm 4 mps 748 mmHg 53%
    14:00 +23°C° 0 mm 4 mps 748 mmHg 53%
    15:00 +23°C° 0 mm 4 mps 747 mmHg 56%
    16:00 +22°C° 0 mm 4 mps 747 mmHg 59%
    17:00 +22°C° 0 mm 4 mps 747 mmHg 62%
    18:00 +20°C° 0 mm 3 mps 747 mmHg 71%
    19:00 +18°C° 0 mm 2 mps 747 mmHg 79%
    20:00 +16°C° 0 mm 1 mps 747 mmHg 88%
    21:00 +15°C° 0 mm 1 mps 748 mmHg 88%
    22:00 +15°C° 0 mm 1 mps 748 mmHg 89%
    23:00 +15°C° 0 mm 1 mps 748 mmHg 89%

    25 April, Thursday

    Time Temperature Precipitation Wind Pressure Humidity
    00:00 +14°C° 0 mm 1 mps 748 mmHg 90%
    01:00 +14°C° 0 mm 1 mps 748 mmHg 91%
    02:00 +13°C° 0 mm 1 mps 748 mmHg 91%
    03:00 +13°C° 0 mm 1 mps 748 mmHg 91%
    04:00 +13°C° 0 mm 1 mps 748 mmHg 91%
    05:00 +11°C° 0 mm 0 mps 748 mmHg 91%
    06:00 +14°C° 0 mm 1 mps 748 mmHg 85%
    07:00 +15°C° 0 mm 1 mps 749 mmHg 79%
    08:00 +18°C° 0 mm 1 mps 749 mmHg 72%
    09:00 +19°C° 0 mm 2 mps 749 mmHg 67%
    10:00 +20°C° 0 mm 2 mps 749 mmHg 62%
    11:00 +23°C° 0 mm 2 mps 749 mmHg 57%
    12:00 +24°C° 0 mm 3 mps 749 mmHg 55%
    13:00 +25°C° 0 mm 3 mps 748 mmHg 53%
    14:00 +25°C° 0 mm 3 mps 748 mmHg 51%
    15:00 +25°C° 0 mm 3 mps 748 mmHg 54%
    16:00 +24°C° 0 mm 3 mps 747 mmHg 57%
    17:00 +22°C° 0 mm 3 mps 747 mmHg 60%
    18:00 +21°C° 0 mm 2 mps 747 mmHg 68%
    19:00 +19°C° 0 mm 2 mps 747 mmHg 75%
    20:00 +18°C° 0 mm 1 mps 747 mmHg 82%
    21:00 +18°C° 0 mm 1 mps 747 mmHg 85%
    22:00 +16°C° 0 mm 1 mps 747 mmHg 88%
    23:00 +16°C° 0 mm 1 mps 747 mmHg 91%

    26 April, Friday

    Time Temperature Precipitation Wind Pressure Humidity
    00:00 +15°C° 0 mm 1 mps 747 mmHg 92%
    01:00 +14°C° 0 mm 1 mps 747 mmHg 92%
    02:00 +14°C° 0 mm 1 mps 747 mmHg 93%
    03:00 +14°C° 0 mm 1 mps 747 mmHg 93%
    04:00 +13°C° 0 mm 1 mps 746 mmHg 92%
    05:00 +13°C° 0 mm 1 mps 746 mmHg 92%
    06:00 +15°C° 0 mm 1 mps 746 mmHg 86%
    07:00 +16°C° 0 mm 1 mps 746 mmHg 80%
    08:00 +19°C° 0 mm 1 mps 747 mmHg 75%
    09:00 +19°C° 0 mm 2 mps 746 mmHg 69%
    10:00 +21°C° 0 mm 2 mps 746 mmHg 63%
    11:00 +24°C° 0 mm 2 mps 746 mmHg 58%
    12:00 +25°C° 0 mm 3 mps 745 mmHg 57%
    13:00 +25°C° 0 mm 3 mps 745 mmHg 55%
    14:00 +26°C° 0 mm 3 mps 744 mmHg 54%
    15:00 +25°C° 0.3 mm 3 mps 744 mmHg 57%
    16:00 +25°C° 0.3 mm 3 mps 743 mmHg 61%
    17:00 +24°C° 0.3 mm 3 mps 743 mmHg 64%
    18:00 +21°C° 0.2 mm 3 mps 743 mmHg 72%
    19:00 +19°C° 0.2 mm 2 mps 743 mmHg 79%
    20:00 +18°C° 0.2 mm 1 mps 743 mmHg 86%
    21:00 +18°C° 0.1 mm 1 mps 743 mmHg 86%
    22:00 +16°C° 0.1 mm 1 mps 743 mmHg 86%
    23:00 +16°C° 0.1 mm 1 mps 743 mmHg 86%
    Show more